Dennison, MN

6:28 PM CST on December 03, 2016 (GMT -0600)
Stanton

Weather History for KSYN - September, 2012

Change the Weather History Date:

Thursday, September 27, 2012

  Actual Average (KLVN) Record (KLVN)
Temperature  
Mean Temperature 50 °F -  
Max Temperature 69 °F 69 °F 88 °F (1956)
Min Temperature 30 °F 44 °F 29 °F (1991)
Degree Days  
Heating Degree Days 16    
Moisture  
Dew Point 34 °F    
Average Humidity 63    
Maximum Humidity 92    
Minimum Humidity 28    
Precipitation  
Precipitation 0.00 in - - ()
Sea Level Pressure  
Sea Level Pressure 30.21 in    
Wind  
Wind Speed 1 mph (NW)    
Max Wind Speed 6 mph    
Max Gust Speed -    
Visibility 10 miles    
Events      
Averages and records for this station are not official NWS values.
T = Trace of Precipitation, MM = Missing Value Source: NWS Daily Summary

Daily Weather History Graph

Daily Weather History Graph

Search for Another Location

Airport or City:

Trip Planner

Search our weather history database for the weather conditions in past years. The results will help you decide how hot, cold, wet, or windy it might be!

Date:

Astronomy

Sep. 27, 2012 Rise Set
Actual Time 7:05 AM CDT 6:59 PM CDT
Civil Twilight 6:36 AM CDT 7:28 PM CDT
Nautical Twilight 6:02 AM CDT 8:01 PM CDT
Astronomical Twilight 5:28 AM CDT 8:36 PM CDT
Moon 5:34 PM CDT (9/27) 4:31 AM CDT (9/27)
Length of Visible Light 12h 51m
Length of Day
11h 53m
Waxing Gibbous, 94% of the Moon is Illuminated
Sep 27
Waxing Gibbous
Sep 29
Full
Oct 8
Last Quarter
Oct 15
New
Oct 21
First Quarter

Hourly Weather History & Observations

Time (CDT) Temp. Windchill Dew Point Humidity Pressure Visibility Wind Dir Wind Speed Gust Speed Precip Events Conditions
12:12 AM 38.1 °F - 32.2 °F 79% 30.20 in 10.0 mi Calm Calm - N/A   Clear
12:32 AM 36.7 °F - 32.0 °F 83% 30.20 in 10.0 mi Calm Calm - N/A   Clear
12:52 AM 36.3 °F - 32.0 °F 84% 30.20 in 10.0 mi Calm Calm - N/A   Clear
1:12 AM 35.6 °F - 31.3 °F 84% 30.20 in 10.0 mi Calm Calm - N/A   Clear
1:32 AM 35.1 °F - 31.5 °F 87% 30.21 in 7.0 mi Calm Calm - N/A   Clear
1:52 AM 35.2 °F - 31.3 °F 85% 30.21 in 10.0 mi Calm Calm - N/A   Clear
2:12 AM 34.3 °F - 30.9 °F 87% 30.21 in 10.0 mi Calm Calm - N/A   Clear
2:32 AM 34.7 °F - 31.6 °F 89% 30.20 in 10.0 mi Calm Calm - N/A   Clear
2:52 AM 33.1 °F - 29.8 °F 88% 30.20 in 10.0 mi Calm Calm - N/A   Clear
3:12 AM 33.8 °F - 31.1 °F 90% 30.21 in 10.0 mi Calm Calm - N/A   Clear
3:32 AM 32.7 °F - 29.8 °F 89% 30.22 in 10.0 mi Calm Calm - N/A   Clear
3:52 AM 32.5 °F - 29.8 °F 90% 30.23 in 10.0 mi Calm Calm - N/A   Clear
4:12 AM 33.1 °F - 30.0 °F 89% 30.22 in 10.0 mi Calm Calm - N/A   Clear
4:32 AM 32.2 °F - 29.3 °F 89% 30.23 in 10.0 mi Calm Calm - N/A   Clear
4:52 AM 31.8 °F - 29.3 °F 90% 30.23 in 10.0 mi Calm Calm - N/A   Clear
5:12 AM 31.1 °F - 28.0 °F 88% 30.23 in 10.0 mi Calm Calm - N/A   Clear
5:32 AM 32.4 °F - 29.7 °F 90% 30.23 in 10.0 mi Calm Calm - N/A   Clear
5:52 AM 32.0 °F - 29.1 °F 89% 30.24 in 10.0 mi Calm Calm - N/A   Clear
6:12 AM 31.8 °F - 29.3 °F 90% 30.24 in 10.0 mi Calm Calm - N/A   Clear
6:32 AM 32.0 °F - 29.3 °F 90% 30.25 in 10.0 mi Calm Calm - N/A   Clear
6:52 AM 31.1 °F - 28.8 °F 91% 30.26 in 10.0 mi Calm Calm - N/A   Clear
7:12 AM 31.1 °F 27.7 °F 28.4 °F 90% 30.26 in 10.0 mi South 3.5 mph - N/A   Clear
7:32 AM 30.9 °F - 28.4 °F 90% 30.26 in 10.0 mi Calm Calm - N/A   Clear
7:52 AM 32.2 °F - 30.0 °F 92% 30.26 in 10.0 mi Calm Calm - N/A   Clear
8:12 AM 34.2 °F - 31.5 °F 90% 30.26 in 10.0 mi Calm Calm - N/A   Clear
8:32 AM 37.8 °F - 34.0 °F 86% 30.27 in 10.0 mi Calm Calm - N/A   Clear
8:52 AM 40.8 °F - 36.0 °F 83% 30.27 in 10.0 mi Calm Calm - N/A   Clear
9:12 AM 44.6 °F - 36.0 °F 72% 30.27 in 10.0 mi Calm Calm - N/A   Clear
9:32 AM 48.0 °F - 37.6 °F 67% 30.27 in 10.0 mi Calm Calm - N/A   Clear
9:52 AM 51.6 °F - 38.1 °F 60% 30.26 in 10.0 mi Calm Calm - N/A   Clear
10:12 AM 54.9 °F - 38.8 °F 55% 30.26 in 10.0 mi Calm Calm - N/A   Clear
10:32 AM 56.5 °F - 37.9 °F 50% 30.26 in 10.0 mi Calm Calm - N/A   Clear
10:52 AM 59.0 °F - 37.8 °F 45% 30.25 in 10.0 mi Calm Calm - N/A   Clear
11:12 AM 60.1 °F - 36.3 °F 41% 30.25 in 10.0 mi Calm Calm - N/A   Clear
11:32 AM 61.7 °F - 35.8 °F 38% 30.23 in 10.0 mi Calm Calm - N/A   Clear
11:52 AM 62.1 °F - 35.4 °F 37% 30.23 in 10.0 mi WNW 3.5 mph - N/A   Clear
12:12 PM 63.1 °F - 35.2 °F 35% 30.23 in 10.0 mi Calm Calm - N/A   Clear
12:32 PM 63.7 °F - 34.5 °F 34% 30.22 in 10.0 mi Calm Calm - N/A   Clear
12:52 PM 65.3 °F - 34.5 °F 32% 30.22 in 10.0 mi NNW 4.6 mph - N/A   Clear
1:12 PM 64.9 °F - 34.2 °F 32% 30.21 in 10.0 mi East 4.6 mph - N/A   Clear
1:32 PM 65.3 °F - 34.3 °F 32% 30.20 in 10.0 mi Calm Calm - N/A   Clear
1:52 PM 65.8 °F - 34.3 °F 31% 30.20 in 10.0 mi Calm Calm - N/A   Clear
2:13 PM 67.5 °F - 34.7 °F 30% 30.20 in 10.0 mi SSE 3.5 mph - N/A   Clear
2:32 PM 67.8 °F - 34.7 °F 29% 30.19 in 10.0 mi ESE 3.5 mph - N/A   Clear
2:52 PM 68.2 °F - 34.0 °F 28% 30.19 in 10.0 mi SW 4.6 mph - N/A   Clear
3:13 PM 68.9 °F - 34.0 °F 28% 30.19 in 10.0 mi Calm Calm - N/A   Clear
3:32 PM 69.1 °F - 34.3 °F 28% 30.18 in 10.0 mi NNW 3.5 mph - N/A   Clear
3:52 PM 68.9 °F - 34.9 °F 29% 30.18 in 10.0 mi West 3.5 mph - N/A   Clear
4:12 PM 68.9 °F - 34.9 °F 29% 30.17 in 10.0 mi NNW 5.8 mph - N/A   Clear
4:32 PM 68.9 °F - 34.5 °F 28% 30.16 in 10.0 mi Calm Calm - N/A   Clear
4:52 PM 68.9 °F - 34.7 °F 28% 30.16 in 10.0 mi West 3.5 mph - N/A   Clear
5:32 PM 68.9 °F - 34.9 °F 29% 30.16 in 10.0 mi NNW 3.5 mph - N/A   Clear
5:52 PM 68.2 °F - 34.3 °F 29% 30.16 in 10.0 mi Calm Calm - N/A   Clear
6:12 PM 66.2 °F - 35.6 °F 32% 30.16 in 10.0 mi North 3.5 mph - N/A   Clear
6:32 PM 64.6 °F - 34.9 °F 33% 30.16 in 10.0 mi NNE 4.6 mph - N/A   Clear
6:52 PM 60.6 °F - 34.9 °F 38% 30.16 in 10.0 mi NNE 3.5 mph - N/A   Clear
7:12 PM 59.2 °F - 35.8 °F 42% 30.16 in 10.0 mi Calm Calm - N/A   Clear
7:32 PM 58.1 °F - 37.2 °F 46% 30.16 in 10.0 mi Calm Calm - N/A   Clear
7:52 PM 55.2 °F - 37.6 °F 52% 30.17 in 10.0 mi Calm Calm - N/A   Clear
8:12 PM 54.5 °F - 38.5 °F 55% 30.17 in 10.0 mi Calm Calm - N/A   Clear
8:32 PM 51.3 °F - 39.0 °F 63% 30.18 in 10.0 mi Calm Calm - N/A   Clear
8:52 PM 49.3 °F - 38.5 °F 66% 30.18 in 10.0 mi Calm Calm - N/A   Clear
9:32 PM 45.9 °F 44.6 °F 37.8 °F 73% 30.18 in 7.0 mi South 3.5 mph - N/A   Clear
9:52 PM 45.5 °F - 37.6 °F 74% 30.18 in 7.0 mi Calm Calm - N/A   Clear
10:12 PM 45.1 °F - 37.4 °F 74% 30.18 in 7.0 mi Calm Calm - N/A   Clear
10:32 PM 43.2 °F - 36.5 °F 77% 30.17 in 7.0 mi Calm Calm - N/A   Clear
10:52 PM 40.5 °F - 35.4 °F 82% 30.17 in 7.0 mi Calm Calm - N/A   Clear
11:12 PM 40.8 °F - 35.4 °F 81% 30.17 in 5.0 mi Calm Calm - N/A   Haze
11:32 PM 42.3 °F - 36.0 °F 78% 30.18 in 5.0 mi Calm Calm - N/A   Haze
11:52 PM 41.9 °F - 36.0 °F 79% 30.18 in 5.0 mi Calm Calm - N/A   Haze